[[{"header":{"parameterUnit":"m.s-1","parameterCategory":1,"la1":30.2991,"la2":30.254,"lo1":-89.0895,"lo2":-89.0444,"dy":0.0017,"dx":0.0017,"nx":28,"ny":28,"refTime":"2025-01-03T09:00:00:Z","depth":0,"parameterNumber":2,"parameterNumberName":"U-component_of_WINDS"},"data":[0,0,0,0,0,0,0,0,0,0,0,0,0,0,0,0,0,0,0,0,0,0,0,0,0,0,0,0,0,0,0,0,0,0,0,0,0,0,0,0,0,0,0,0,0,0,0,0,0,0,0,0,0,0,0,0,0,0,-5.5109,-5.511,0,-5.5193,-5.5194,-5.5195,-5.5132,-5.5129,-5.5126,-5.5124,-5.521,-5.5214,-5.5219,0,0,0,0,0,0,0,0,0,0,0,0,0,-5.4894,-5.4899,-5.5109,-5.511,-5.5111,-5.5193,-5.5194,-5.5195,-5.5132,-5.5129,-5.5126,-5.5123,-5.5208,-5.5214,-5.522,0,0,0,0,0,0,0,0,0,0,0,0,0,-5.4984,-5.49,-5.5109,-5.509,-5.5089,-5.5193,-5.5194,-5.5195,-5.5133,-5.5129,-5.5125,-5.5121,-5.5206,-5.5213,-5.522,-5.5347,0,0,-5.5243,-5.5246,0,0,0,0,0,0,0,0,-5.4979,-5.4992,-5.5092,-5.5091,-5.509,-5.5148,-5.515,-5.5246,-5.5134,-5.5116,-5.5124,-5.5119,-5.5192,-5.5201,-5.5225,-5.5351,-5.5355,-5.5243,-5.5248,-5.5251,-5.5253,0,0,0,0,0,0,0,-5.4973,-5.4988,-5.5142,-5.5093,-5.5092,-5.5077,-5.5085,-5.5168,-5.5176,-5.5118,-5.5113,-5.5124,-5.5191,-5.5218,-5.5227,-5.5356,-5.5243,-5.5249,-5.5254,-5.5257,-5.5588,-5.5593,0,0,0,0,0,0,-5.4968,-5.4983,-5.514,-5.5145,-5.5023,-5.5084,-5.5093,-5.5134,-5.5175,-5.5178,-5.5127,-5.5121,-5.5208,-5.5218,-5.523,-5.5378,-5.5251,-5.5257,-5.5262,-5.5584,-5.5589,-5.5594,0,0,0,0,0,0,-5.4964,-5.4983,-5.5136,-5.5063,-5.5081,-5.5092,-5.5138,-5.5137,-5.5164,-5.5183,-5.5184,-5.5153,-5.5205,-5.5219,-5.5318,-5.538,-5.5261,-5.5267,-5.5579,-5.5586,-5.5592,-5.5678,0,0,0,0,0,0,-5.4958,-5.4982,-5.503,-5.5064,-5.5085,-5.5223,-5.5142,-5.5142,-5.5177,-5.5169,-5.5207,-5.521,-5.5203,-5.5307,-5.5325,-5.5388,-5.5273,-5.5573,-5.5582,-5.559,-5.567,-5.5687,-5.5702,0,0,0,0,0,-5.4951,-5.5052,-5.5033,-5.5052,-5.5146,-5.5227,-5.5239,-5.5229,-5.5182,-5.5231,-5.5242,-5.5209,-5.5372,-5.5318,-5.5338,-5.5404,-5.5569,-5.5579,-5.5589,-5.5662,-5.5683,-5.5701,0,0,0,0,0,0,-5.5024,-5.5056,-5.5035,-5.515,-5.5187,-5.5216,-5.5277,-5.5252,-5.5302,-5.5293,-5.5279,-5.5288,-5.5391,-5.5408,-5.5347,-5.5528,-5.5463,-5.5477,-5.5512,-5.5532,-5.5548,-5.554,-5.5279,0,0,0,0,0,-5.5054,-5.5118,-5.5142,-5.5241,-5.526,-5.5266,-5.5301,-5.529,-5.5327,-5.5342,-5.5361,-5.5398,-5.5457,-5.5496,-5.5552,-5.5673,-5.5679,-5.5728,-5.5744,-5.5757,-5.5769,-5.5831,-5.5852,-5.5627,-5.5627,-5.5627,0,0,-5.5116,-5.5141,-5.5182,-5.5257,-5.5283,-5.5348,-5.5279,-5.5352,-5.5399,-5.5353,-5.5446,-5.5462,-5.5502,-5.5612,-5.5661,-5.5629,-5.5833,-5.577,-5.578,-5.5785,-5.5844,-5.5865,-5.5884,-5.5634,-5.5633,-5.5632,0,0,-5.5261,-5.5288,-5.5372,-5.54,-5.5441,-5.5444,-5.5465,-5.5499,-5.5507,-5.5601,-5.5567,-5.5624,-5.5727,-5.5756,-5.5784,-5.5941,-5.5911,-5.596,-5.6042,-5.6103,-5.6121,-5.6136,-5.6189,-5.6208,-5.5972,-5.5973,-5.5973,0,-5.5332,-5.5429,-5.5418,-5.5492,-5.5525,-5.5487,-5.5571,-5.56,-5.5657,-5.568,-5.5645,-5.5772,-5.5797,-5.5911,-5.5949,-5.5975,-5.5996,-5.5954,-5.6119,-5.6135,-5.6149,-5.6199,-5.6219,-5.5978,-5.5977,-5.5977,-5.5976,0,-5.5512,-5.558,-5.5644,-5.5699,-5.574,-5.5819,-5.582,-5.5862,-5.5849,-5.5856,-5.595,-5.5979,-5.6039,-5.6066,-5.6054,-5.6179,-5.6157,-5.6121,-5.6055,-5.6176,-5.6222,-5.6242,-5.5986,-5.5984,-5.5982,-5.5981,0,0,-5.5703,-5.5752,-5.5775,-5.5799,-5.5842,-5.5894,-5.5972,-5.603,-5.6065,-5.6107,-5.617,-5.6258,-5.6224,-5.6257,-5.6248,-5.6303,-5.6421,-5.6259,-5.626,-5.6285,-5.6556,-5.658,-5.6602,-5.6403,-5.6406,-5.6409,-5.6551,0,-5.5847,-5.598,-5.5973,-5.6098,-5.6159,-5.6125,-5.6192,-5.6225,-5.6235,-5.6288,-5.6298,-5.6359,-5.6312,-5.6331,-5.6383,-5.6395,-5.6474,-5.6386,-5.6458,-5.6461,-5.6445,-5.6627,-5.6652,-5.6785,-5.657,-5.6573,-5.6575,0,-5.6031,-5.6078,-5.6209,-5.6241,-5.6267,-5.6327,-5.6379,-5.6431,-5.6469,-5.6471,-5.6508,-5.649,-5.6567,-5.6503,-5.6608,-5.6547,-5.6578,-5.6588,-5.6593,-5.6596,-5.6522,-5.663,-5.6827,-5.6845,-5.6604,-5.6602,-5.66,0,-5.6151,-5.6248,-5.6338,-5.636,-5.6402,-5.6445,-5.6464,-5.6497,-5.6532,-5.6579,-5.6601,-5.6656,-5.6685,-5.6728,-5.6725,-5.6679,-5.6831,-5.6767,-5.6833,-5.6833,-5.6863,-5.686,-5.7062,-5.689,-5.689,-5.689,-5.6889,0,-5.631,-5.639,-5.6392,-5.6447,-5.6536,-5.6528,-5.6616,-5.6631,-5.6661,-5.6718,-5.6694,-5.6747,-5.6742,-5.6797,-5.6796,-5.6881,-5.6896,-5.6898,-5.6896,-5.6898,-5.6897,-5.6914,-5.6903,-5.6895,-5.6894,-5.6893,-5.6892,0,-5.6457,-5.6463,-5.6557,-5.6589,-5.6599,-5.6663,-5.669,-5.6741,-5.6749,-5.6821,-5.6838,-5.685,-5.6912,-5.6915,-5.6987,-5.6986,-5.7089,-5.7079,-5.7076,-5.7072,-5.7137,-5.7129,-5.7353,-5.7381,-5.7195,-5.7197,-5.7198,0,-5.6555,-5.6616,-5.6655,-5.669,-5.6712,-5.6771,-5.6806,-5.6802,-5.684,-5.6887,-5.6932,-5.6993,-5.704,-5.7141,-5.7156,-5.7211,-5.7199,-5.7274,-5.7207,-5.7206,-5.7195,-5.7189,-5.7194,-5.7285,-5.7288,-5.7289,-5.7291,0,-5.6728,-5.6727,-5.6779,-5.6832,-5.6875,-5.6917,-5.6955,-5.6987,-5.6986,-5.703,-5.7093,-5.713,-5.7204,-5.7263,-5.7316,-5.7336,-5.7312,-5.7313,-5.733,-5.733,-5.7323,-5.7323,-5.7106,-5.7306,-5.7305,-5.7303,-5.7303,-5.7302,-5.685,-5.6902,-5.6936,-5.6995,-5.7023,-5.706,-5.7109,-5.7123,-5.7176,-5.7234,-5.723,-5.7299,-5.7335,-5.7404,-5.7428,-5.7482,-5.7456,-5.7482,-5.7488,-5.7493,-5.7498,-5.7319,-5.7492,-5.7492,-5.7491,-5.7491,-5.7491,0,-5.7017,-5.7038,-5.7092,-5.7147,-5.7192,-5.7169,-5.721,-5.725,-5.7311,-5.7346,-5.7393,-5.7465,-5.7523,-5.7543,-5.7598,-5.7637,-5.7628,-5.7652,-5.7646,-5.765,-5.752,-5.7497,-5.7658,-5.7658,-5.7658,-5.7658,-5.7658,-5.7658,-5.7109,-5.7194,-5.7198,-5.7296,-5.7317,-5.7384,-5.7409,-5.7443,-5.747,-5.7551,-5.7599,-5.7612,-5.7641,-5.7698,-5.7749,-5.7754,-5.7773,-5.7801,-5.78,-5.7677,-5.766,-5.7644,-5.7622,-5.7806,-5.7806,-5.7925,-5.7926,-5.7927]},{"header":{"parameterUnit":"m.s-1","parameterCategory":1,"la1":30.2991,"la2":30.254,"lo1":-89.0895,"lo2":-89.0444,"dy":0.0017,"dx":0.0017,"nx":28,"ny":28,"refTime":"2025-01-03T09:00:00:Z","depth":0,"parameterNumber":3,"parameterNumberName":"V-component_of_WINDS"},"data":[0,0,0,0,0,0,0,0,0,0,0,0,0,0,0,0,0,0,0,0,0,0,0,0,0,0,0,0,0,0,0,0,0,0,0,0,0,0,0,0,0,0,0,0,0,0,0,0,0,0,0,0,0,0,0,0,0,0,0.6175,0.6176,0,0.6232,0.6233,0.6234,0.6183,0.6181,0.6179,0.6177,0.6234,0.6238,0.6241,0,0,0,0,0,0,0,0,0,0,0,0,0,0.6024,0.6027,0.6175,0.6176,0.6176,0.6232,0.6233,0.6234,0.6184,0.6181,0.6179,0.6176,0.6233,0.6237,0.6242,0,0,0,0,0,0,0,0,0,0,0,0,0,0.6086,0.6028,0.6175,0.6158,0.6157,0.6232,0.6233,0.6234,0.6184,0.6181,0.6178,0.6175,0.6232,0.6237,0.6242,0.6336,0,0,0.6258,0.626,0,0,0,0,0,0,0,0,0.6083,0.6092,0.616,0.6159,0.6159,0.6197,0.6201,0.6268,0.6185,0.6174,0.6177,0.6174,0.6225,0.623,0.6248,0.6339,0.6341,0.6258,0.6261,0.6264,0.6265,0,0,0,0,0,0,0,0.6078,0.6089,0.6198,0.6161,0.616,0.6148,0.6154,0.6213,0.6216,0.6175,0.6171,0.6179,0.6224,0.6243,0.6249,0.6342,0.6258,0.6263,0.6266,0.6268,0.6518,0.6521,0,0,0,0,0,0,0.6076,0.6086,0.6196,0.6199,0.6112,0.6154,0.616,0.6188,0.6215,0.6216,0.6181,0.6176,0.6235,0.6243,0.625,0.6366,0.6264,0.6268,0.6271,0.6515,0.6519,0.6523,0,0,0,0,0,0,0.6073,0.6086,0.6193,0.6142,0.6154,0.6159,0.6192,0.6191,0.621,0.622,0.622,0.62,0.6233,0.6243,0.6316,0.6367,0.6271,0.6276,0.651,0.6516,0.6521,0.6596,0,0,0,0,0,0,0.6069,0.6085,0.612,0.6143,0.6157,0.6258,0.6195,0.6194,0.6219,0.6213,0.6238,0.6239,0.6232,0.6309,0.6322,0.6373,0.628,0.6506,0.6513,0.6519,0.6589,0.6603,0.6615,0,0,0,0,0,0.6063,0.6138,0.6122,0.6136,0.6201,0.6261,0.627,0.626,0.6223,0.626,0.6267,0.6238,0.6359,0.6317,0.633,0.6384,0.6503,0.6511,0.6519,0.6583,0.66,0.6615,0,0,0,0,0,0,0.6119,0.614,0.6123,0.6207,0.6233,0.6253,0.6298,0.6277,0.6314,0.6306,0.6292,0.6298,0.6377,0.6387,0.6339,0.6479,0.6425,0.6436,0.647,0.6486,0.6499,0.6496,0.6284,0,0,0,0,0,0.6142,0.6189,0.6204,0.6276,0.6291,0.6292,0.6318,0.6308,0.6334,0.6345,0.6357,0.6383,0.6427,0.6457,0.6497,0.6589,0.6597,0.6633,0.6646,0.6657,0.6668,0.6722,0.674,0.6549,0.6549,0.6549,0,0,0.6188,0.6205,0.6235,0.6288,0.6307,0.6358,0.6301,0.6355,0.6393,0.6352,0.6424,0.6434,0.6462,0.6547,0.6585,0.6558,0.6722,0.6667,0.6676,0.6681,0.6732,0.675,0.6767,0.6554,0.6553,0.6552,0,0,0.6299,0.6315,0.638,0.6401,0.6431,0.6432,0.6448,0.6471,0.6477,0.6549,0.6521,0.6565,0.664,0.6663,0.6685,0.6809,0.6786,0.6822,0.6892,0.6945,0.6961,0.6974,0.7023,0.704,0.6832,0.6833,0.6833,0,0.6353,0.6427,0.6415,0.6473,0.6499,0.6466,0.6533,0.6554,0.6595,0.6614,0.6584,0.6681,0.6698,0.679,0.6821,0.6837,0.6857,0.6821,0.6959,0.6973,0.6985,0.7031,0.7049,0.6837,0.6837,0.6836,0.6836,0,0.6494,0.6546,0.6595,0.6639,0.667,0.6731,0.6731,0.6763,0.6752,0.6757,0.6832,0.6851,0.6898,0.6918,0.6906,0.701,0.6993,0.6961,0.6908,0.7008,0.7052,0.7069,0.6844,0.6842,0.6841,0.684,0,0,0.6641,0.668,0.6699,0.6721,0.6753,0.6794,0.6855,0.6902,0.6933,0.6962,0.7016,0.7083,0.7055,0.7079,0.707,0.7116,0.7219,0.7079,0.708,0.7108,0.734,0.7367,0.7387,0.7203,0.7206,0.7209,0.7339,0,0.6757,0.6865,0.6858,0.6961,0.7011,0.6982,0.7037,0.7063,0.707,0.7114,0.7121,0.7171,0.7128,0.7143,0.7188,0.7197,0.7266,0.7187,0.7255,0.7258,0.7253,0.7409,0.7436,0.7558,0.7355,0.7358,0.736,0,0.6906,0.6945,0.7053,0.7083,0.7103,0.7152,0.7197,0.7239,0.727,0.7272,0.7302,0.7286,0.735,0.7293,0.7384,0.7331,0.7358,0.7367,0.7372,0.738,0.7318,0.7426,0.7596,0.7616,0.7386,0.7384,0.7382,0,0.7008,0.7087,0.7163,0.7182,0.7217,0.7253,0.7269,0.7296,0.7327,0.7366,0.7386,0.7431,0.7457,0.7493,0.749,0.7448,0.7584,0.7526,0.759,0.7591,0.7622,0.7621,0.7803,0.7633,0.7633,0.7633,0.7632,0,0.714,0.7209,0.7211,0.7258,0.7335,0.7326,0.7403,0.7415,0.7441,0.7491,0.7467,0.7515,0.7507,0.7556,0.7554,0.7632,0.7642,0.7648,0.7647,0.7652,0.7652,0.7672,0.7665,0.7638,0.7636,0.7635,0.7635,0,0.7268,0.7271,0.7354,0.7381,0.739,0.7446,0.747,0.7516,0.7521,0.7586,0.7601,0.761,0.7666,0.7667,0.773,0.7729,0.7826,0.7813,0.7817,0.7816,0.7881,0.7877,0.8086,0.8115,0.7923,0.7925,0.7926,0,0.7354,0.7406,0.7441,0.7474,0.7493,0.7545,0.7577,0.7571,0.7606,0.7647,0.7689,0.7743,0.7787,0.7878,0.7891,0.7941,0.7932,0.8002,0.7939,0.7944,0.7938,0.7937,0.7944,0.8015,0.8017,0.8019,0.802,0,0.7507,0.7507,0.7554,0.7604,0.7643,0.7681,0.7716,0.7744,0.7742,0.7782,0.7841,0.7875,0.7942,0.7997,0.8046,0.8063,0.8044,0.804,0.8058,0.8066,0.8067,0.8072,0.7854,0.8036,0.8034,0.8033,0.8032,0.8032,0.7619,0.7667,0.77,0.7755,0.7781,0.7815,0.7862,0.7874,0.7923,0.7979,0.7972,0.8038,0.8071,0.8135,0.8156,0.8209,0.8185,0.821,0.8217,0.8225,0.8234,0.8056,0.8217,0.8217,0.8216,0.8216,0.8216,0,0.7776,0.7796,0.7846,0.7898,0.7942,0.7919,0.7958,0.7996,0.8055,0.8088,0.8132,0.8202,0.8256,0.8275,0.8328,0.8367,0.836,0.8382,0.8381,0.8386,0.825,0.8231,0.8388,0.8388,0.8388,0.8387,0.8387,0.8387,0.7862,0.7943,0.7948,0.8043,0.8063,0.8129,0.8154,0.8186,0.8213,0.8292,0.8338,0.835,0.8378,0.8434,0.8484,0.8488,0.8511,0.8538,0.8539,0.8412,0.8395,0.8379,0.8361,0.8542,0.8542,0.8671,0.8672,0.8673]}]]